sat.trackr.live / text

‹ back to catalog

STARLINK-31449

NORAD 58966 · 2024-031B

PAYLOAD ACTIVE UNKNOWN

§ Identity

Operator
Country
US
Launch date
2024-02-15
Launch site
AFWTR
Launch vehicle
Mass (kg)
RCS (m²)

Purposes: comms

External: N2YO · Heavens-Above · Gunter

§ Orbital elements

Epoch: 2026-09-19T23:43:24.284928Z

Period
93.85 min
Inclination
53.1584°
Eccentricity
0.0000768
Mean motion
15.34388392 rev/d
Perigee alt
462.2 km
Apogee alt
463.3 km
Semi-major
6,840.9 km
B*
2.2393e-5
RAAN
111.8973°
Arg perigee
90.5724°
Mean anomaly
269.5366°
Rev number
14,631

§ Raw data

STARLINK-314491 58966U 24031B   26262.98847552  .00000381  00000+0  22393-4 0  99942 58966  53.1584 111.8973 0000768  90.5724 269.5366 15.34388392146318

JSON: /api/v1/satellites/58966 · /tle

For live sub-satellite position, see the globe view (requires WebGL).

§ Visibility from observer

Set your observer location to see the next 7 days of passes ≥ 10°. The values pass through the URL so the page stays shareable.

No JS? Fill the form by hand. The geolocation button needs JavaScript.